FENGYUN 1C DEB

Satellite information

Favourite Embed

Satellite Type and Status

DEBRISIN ORBIT

Key statistics

Satellite FENGYUN 1C DEB at a glance.

Uptime

9496

Days in orbit

Revolutions

≈ 14.9

Per day

Orbit

SSO

Sun Synchronous Orbit

Inclination

98.9

Latest

Satellite identification and parameters

Extended collection of information and parameters for FENGYUN 1C DEB.

Object identification

Identified? True

Debris? True

Object name: FENGYUN 1C DEB

International designator: 1999-025CMK

Object number (NORAD): 31934

Object ID (CCSDS): 31934

Country: PEOPLES REPUBLIC OF CHINA (PRC)

Current information (Y/N): Y

RCS size: SMALL

Orbital parameters

Period: 96.602 minutes

Inclination: 98.9014 deg

SMA: 6974.06 km

Apoapsis: 629.934 km

Periapsis: 561.916 km

RAAN: 144.9234 deg

Eccentricy: 0.0048765

Argument of periapsis: 223.6152 deg

Mean anomaly: 136.1203 deg

Mean motion: 14.90645025 rev/day

Mean motion (dot): 0.00032866 rev/day2

B* drag term: 0.0032723 1/REarth

Two-line elements (TLE)

Creation date: May 8, 2025, 2:46 p.m.

Reference frame: TEME

Reference center: EARTH

Epoch: May 5, 2025, 6:43 p.m. UTC

TLE line 0: 0 FENGYUN 1C DEB

TLE line 1: 1 31934U 99025CMK 25125.78026808 .00032866 00000-0 32723-2 0 9993

TLE line 2: 2 31934 98.9014 144.9234 0048765 223.6152 136.1203 14.90645025941636

Live tracking on map

Real-time ground track for satellite FENGYUN 1C DEB.

In-orbit conjunctions

A list of the most updated potential collisions computed for object FENGYUN 1C DEB.

Target Orbit TCA Probability of collision Miss distance Type
CZ-6A DEB LEO 2025-02-15 06:38:57 0.0002300329 414.0 (m) DEBRIS
CZ-2C R/B SSO 2024-09-26 08:43:54 0.001096585 146.0 (m) ROCKET BODY

Associated space launch

Chinese polar orbiting meteorological satellite

FENGYUN 1C DEB was lifted into orbit during the mission ‘Long March 4B | Feng Yun 1C’, on board a Long March 4B space rocket.

The launch took place on May 10, 1999, 1:33 a.m. from Launch Complex 7.

For more information about the launch, click the button.

Launch to space Long March 4B | Feng Yun 1C
Long March 4B | Feng Yun 1C

Agency: N/A

Status: Launch Successful

Launch date: May 10, 1999, 1:33 a.m. UTC

Rocket: Long March 4B

Launch pad: Launch Complex 7

Location: Taiyuan Satellite Launch Center, People's Republic of China

...

Latest news about this satellite

There are no fresh news available about this satellite. Check back as we update our databases every day.


Newsletter sign-up

Weekly statistics, charts and insights to help you stay on top of the space industry.